Theta_e
292 292 291 291 290 289 289 288 287 287 287 287 287 287 287 287 286 286 286 286 286 286 286 285 285 285 285 285 285 285 285 285 284 284 285 284 285 285 285 285 285 285 285 285 285 285 285 285 285 285 285 285 285 285 285 285 285 285 285 286 287 288
293 292 292 291 290 289 288 288 287 287 287 287 287 286 286 286 286 286 286 286 286 286 286 285 285 285 284 284 284 284 284 284 284 284 284 284 284 284 284 284 285 285 285 285 285 285 285 285 285 285 285 285 285 285 285 285 285 285 285 285 285 285
292 292 292 292 290 289 288 288 288 288 287 287 287 287 286 286 286 286 286 286 286 285 285 285 285 285 285 284 284 284 284 284 283 283 283 283 283 284 284 284 284 284 284 284 285 285 285 285 285 285 284 284 284 284 285 285 285 285 285 285 285 285
292 292 292 291 291 289 289 288 288 288 288 288 287 287 287 286 286 286 286 286 286 285 285 285 285 285 285 284 284 284 284 283 283 283 283 283 283 283 283 283 283 283 283 283 284 284 284 284 284 284 284 284 284 284 284 284 284 284 284 284 284 285
291 291 291 291 291 290 289 289 288 288 288 287 287 287 287 287 286 286 286 286 286 286 285 285 285 285 284 284 284 283 283 283 283 283 283 283 283 283 282 282 282 282 282 282 282 282 282 283 283 283 283 283 283 283 283 283 283 283 283 284 284 284
290 291 291 290 290 290 290 289 288 288 288 287 287 287 287 287 286 286 286 286 286 286 285 285 285 285 284 284 283 283 283 282 282 282 282 282 282 282 282 282 281 281 281 281 281 281 281 281 281 281 281 281 281 281 281 281 282 282 282 283 283 284
289 290 290 290 290 290 290 290 288 288 288 287 287 287 287 287 287 286 286 286 286 286 286 285 285 285 284 283 283 283 282 282 282 282 281 281 281 281 281 281 281 280 280 280 280 280 280 280 280 280 280 280 279 280 280 280 280 281 281 282 283 283
288 290 290 290 290 290 290 290 288 288 288 288 288 287 287 287 287 287 287 286 286 286 286 286 285 285 284 283 283 282 282 282 282 281 281 281 281 280 280 280 280 279 279 279 279 279 279 279 279 279 279 278 278 278 279 279 279 280 280 281 281 282
288 289 290 290 289 289 289 289 288 288 288 288 288 288 287 287 287 287 287 287 286 286 286 286 286 285 284 283 282 282 282 282 281 281 281 280 280 280 280 279 279 279 279 278 279 278 278 278 278 278 277 277 277 278 278 278 279 279 280 280 281 281
287 287 289 289 289 289 289 288 289 288 288 288 288 288 288 287 287 287 287 287 286 286 286 286 285 285 284 283 282 282 281 281 281 280 280 280 279 279 279 278 278 278 278 278 278 278 278 277 277 277 277 277 277 277 278 278 279 279 280 280 280 281
287 286 288 289 289 289 289 289 289 289 289 289 288 288 288 288 287 287 287 286 286 286 285 285 285 285 284 282 281 281 281 280 280 280 279 279 279 278 278 277 277 277 277 277 277 277 277 277 277 277 276 277 277 278 278 279 279 279 279 279 280 280
286 287 288 288 289 289 289 289 289 289 289 289 288 288 288 288 287 287 287 286 286 285 285 285 285 284 283 282 281 280 280 279 279 279 278 278 277 277 277 276 276 276 276 276 276 276 276 276 276 276 276 277 278 278 278 278 278 278 279 279 279 279
286 287 287 288 289 289 289 289 289 289 289 289 289 288 288 288 288 287 286 286 285 285 285 285 285 284 282 281 280 279 279 278 278 277 277 277 276 276 276 275 275 275 275 275 275 275 275 275 275 275 276 277 277 278 278 278 278 278 278 278 278 278
285 286 287 289 290 290 289 290 290 289 290 289 289 288 288 288 287 287 286 286 285 285 284 284 284 283 281 280 279 279 278 277 277 276 276 276 275 275 275 274 274 274 274 273 273 273 273 273 273 274 275 276 276 277 277 277 277 277 277 277 277 277
286 287 289 290 290 290 290 290 290 290 290 289 289 288 288 287 287 286 285 285 284 284 284 283 282 281 280 279 278 277 277 276 276 275 275 275 274 274 274 273 273 272 272 272 271 271 272 272 272 273 273 274 275 275 275 275 275 275 276 276 276 276
288 289 290 290 290 290 290 290 289 289 289 289 288 288 287 287 286 285 284 284 283 283 282 281 280 279 278 277 277 276 275 275 275 274 274 274 273 273 272 272 271 271 270 270 270 270 270 270 270 271 272 272 273 273 274 274 274 274 274 274 275 275
289 289 289 290 290 290 289 289 288 288 288 288 287 287 286 285 285 284 283 283 281 280 280 279 278 277 276 275 275 274 274 274 273 273 272 272 271 271 270 270 269 269 268 268 268 268 268 268 268 269 270 270 271 272 272 272 272 272 272 272 272 272
290 290 290 290 289 289 288 288 288 287 287 287 286 286 285 284 284 283 282 280 279 278 278 277 276 275 274 274 273 273 273 272 271 270 270 270 270 269 269 268 268 267 267 267 267 266 266 266 267 267 268 269 270 270 270 270 270 270 270 270 270 270
290 290 290 289 289 288 288 287 287 287 286 285 285 284 284 283 282 281 279 278 277 276 276 275 274 273 273 272 272 271 271 270 269 269 268 268 268 267 267 266 266 266 266 265 265 265 265 265 265 266 267 268 269 269 269 269 269 269 269 269 269 270
290 290 289 288 288 287 286 286 286 285 285 284 283 283 282 281 279 278 277 276 275 275 274 273 272 272 272 271 271 270 269 268 268 268 267 266 266 266 265 265 265 265 264 264 264 264 264 265 265 265 266 267 267 268 268 268 268 268 269 269 269 269
289 288 288 287 286 285 284 284 284 283 283 282 282 281 279 278 277 276 275 275 274 273 272 272 271 271 271 270 269 268 267 267 267 267 266 265 265 264 264 264 264 264 264 264 264 264 264 264 264 264 265 266 267 268 268 268 268 269 269 269 269 269
288 287 286 285 284 283 282 282 282 282 281 280 279 278 277 275 275 274 274 273 272 271 271 271 271 270 270 269 268 267 266 266 266 266 265 264 264 264 263 263 263 263 263 263 263 263 263 263 263 263 264 265 267 267 268 268 268 268 268 268 269 269
286 285 284 283 282 281 280 280 280 280 279 278 277 276 275 274 273 273 272 272 271 270 270 270 269 269 268 267 267 266 265 265 265 265 264 264 263 263 263 263 263 263 263 263 263 263 263 263 263 263 264 265 266 267 268 268 268 268 269 269 269 269
284 283 282 281 280 279 279 279 279 278 277 276 275 274 273 272 272 272 271 271 270 269 269 269 268 267 267 266 265 265 265 265 265 264 264 263 263 262 262 262 262 262 262 262 262 262 263 263 263 263 264 265 266 267 268 269 269 269 269 269 270 270
282 281 280 279 279 278 278 278 277 276 276 275 274 273 272 271 271 271 270 269 269 269 269 268 267 266 265 265 264 264 264 264 264 263 263 263 262 262 262 262 262 262 262 262 262 262 263 263 263 263 264 265 266 267 268 269 269 270 270 270 270 270
281 280 279 278 278 277 277 276 276 275 275 274 272 271 270 270 270 270 269 268 268 268 268 266 265 265 264 264 264 263 263 263 263 263 262 262 262 262 261 261 262 261 261 262 262 262 263 263 263 264 264 265 266 267 268 269 270 270 271 271 271 271
281 279 277 277 276 276 275 275 274 274 272 271 270 270 269 269 269 268 268 267 267 267 266 265 264 264 264 263 263 263 263 263 262 262 262 262 261 261 261 261 261 261 261 262 262 262 263 264 264 265 265 266 266 267 268 269 270 270 271 271 271 271
279 277 276 275 275 274 274 273 272 272 271 270 270 269 269 268 268 267 267 267 266 266 265 264 264 263 263 263 263 262 262 262 262 262 262 261 261 261 261 261 261 261 262 262 262 263 264 264 265 266 266 267 267 267 268 269 269 270 270 271 271 271
277 276 275 274 273 272 271 271 270 270 270 269 269 268 268 267 267 266 266 266 265 265 264 263 263 263 262 262 262 262 262 262 262 261 261 261 261 261 261 261 262 262 263 263 263 264 265 266 267 267 268 268 268 268 268 269 269 269 270 270 270 270
276 275 274 273 272 271 270 270 269 269 269 269 268 267 267 266 266 265 265 265 264 264 263 263 262 262 262 262 262 262 262 262 262 261 261 261 261 261 262 262 263 263 264 265 265 266 267 268 268 268 268 269 269 269 270 270 270 270 270 270 270 270
275 274 273 271 271 269 269 269 269 269 269 268 267 266 266 265 265 264 264 264 263 263 262 262 262 262 261 261 261 261 261 262 261 261 262 262 262 263 264 265 266 266 266 267 267 268 268 269 269 269 269 270 271 271 271 272 272 272 272 272 273 273
273 272 271 270 269 268 268 269 269 269 268 267 266 265 265 265 264 263 263 263 263 262 262 261 261 261 261 261 261 261 261 261 262 262 262 263 264 265 266 266 267 267 268 268 269 269 269 269 269 269 270 271 271 271 272 272 273 273 273 274 274 274
271 270 269 268 268 267 267 268 269 268 267 266 266 265 265 264 263 262 262 262 262 261 261 261 261 261 261 260 260 260 260 260 261 263 263 263 263 264 266 267 267 267 267 268 268 268 268 269 269 269 270 271 271 271 272 272 273 273 274 274 274 274
270 269 268 267 267 267 267 268 268 267 266 266 265 264 264 263 262 262 262 261 261 261 261 261 260 260 260 260 260 260 260 260 260 262 265 265 265 264 264 265 266 266 267 267 267 268 268 268 269 269 270 271 271 271 272 272 273 273 274 274 274 274
268 268 267 267 266 266 267 268 268 267 265 265 265 264 263 263 262 261 261 261 261 260 260 260 260 260 260 260 260 259 260 260 259 260 262 264 266 266 267 266 265 265 265 266 266 267 267 268 268 269 269 270 270 271 272 272 272 272 273 273 273 272
267 266 266 266 266 265 266 267 267 266 265 264 264 263 263 262 262 261 261 261 260 260 260 260 260 260 259 259 259 259 259 260 260 260 260 261 262 264 267 268 267 266 264 264 265 266 266 267 268 268 269 269 270 271 271 271 270 270 270 271 271 271
266 266 265 265 265 265 265 267 267 265 264 264 263 263 262 262 261 261 261 261 261 260 260 260 259 259 259 259 259 259 259 259 260 260 260 260 260 260 261 263 264 264 263 263 264 265 265 266 267 267 268 269 269 269 269 268 267 267 268 268 269 269
265 265 265 264 264 264 265 266 266 264 263 263 262 262 262 262 261 261 261 261 261 260 260 260 259 259 259 259 259 259 260 260 260 260 260 260 260 260 260 260 261 262 262 262 263 263 264 265 265 266 268 268 267 267 266 265 265 266 266 266 267 267
Wind_Speed
13 13 14 13 12 12 12 12 12 13 13 13 13 13 13 13 14 14 15 15 16 15 15 16 15 15 15 13 13 15 16 18 20 21 21 21 22 22 23 24 24 25 25 25 25 25 25 25 24 24 24 24 24 25 25 24 24 25 24 24 23 23
16 15 16 16 14 13 13 13 13 12 12 12 12 12 12 13 13 14 14 14 13 12 12 13 14 14 15 14 14 15 15 16 19 20 21 21 22 22 23 23 24 25 26 26 27 28 28 28 28 27 27 26 26 26 26 26 26 26 27 27 27 25
16 17 17 16 15 14 13 13 12 11 10 10 10 10 11 12 13 13 13 13 12 11 11 12 13 15 15 15 16 16 16 16 18 20 20 21 22 23 23 23 23 24 25 25 26 27 28 29 30 30 30 30 30 29 28 28 28 28 28 29 29 29
16 17 17 17 16 15 13 12 11 11 10 9 8 8 9 10 11 12 12 12 12 12 12 13 14 16 17 17 18 18 18 18 19 20 21 22 23 24 24 25 25 25 26 26 26 27 27 28 29 30 31 32 32 32 32 31 30 30 31 30 31 30
16 17 17 17 16 15 14 12 11 10 9 8 7 7 7 7 8 9 10 11 12 13 14 14 15 17 18 19 20 20 20 20 21 21 22 23 24 24 25 26 27 28 28 29 29 29 30 31 31 31 32 32 33 34 35 34 33 32 32 32 33 32
16 17 17 16 15 14 13 12 10 9 7 6 6 6 6 5 5 6 8 9 10 12 14 15 16 18 19 20 21 22 22 22 23 23 23 24 25 26 27 28 29 30 31 31 32 33 33 34 34 34 34 34 33 34 35 36 35 34 34 33 34 34
14 15 15 15 14 13 13 13 10 8 6 5 5 5 5 4 3 4 5 6 8 10 13 15 18 20 21 22 22 23 23 24 24 25 25 27 28 29 30 31 32 32 33 33 34 34 35 35 35 36 36 35 34 33 33 34 34 34 35 35 35 35
12 15 16 16 15 13 13 14 11 8 6 5 3 3 3 3 2 3 5 6 8 10 13 15 18 21 22 22 22 23 23 24 25 26 27 28 30 32 33 34 35 35 35 35 35 34 35 35 35 35 35 35 33 32 33 33 33 33 34 35 35 36
12 16 17 17 16 14 14 14 12 10 8 6 5 3 0 1 3 4 6 8 10 12 14 16 18 22 24 24 23 23 23 24 25 26 27 29 31 33 35 36 37 37 36 36 36 35 35 35 36 36 35 33 32 31 31 33 33 34 34 35 35 36
11 15 17 17 17 16 15 14 13 12 10 8 6 5 4 4 4 6 7 9 10 12 13 15 17 21 24 25 24 24 24 25 27 28 29 30 32 34 35 36 37 37 37 36 36 36 37 37 39 38 34 32 31 30 31 32 33 34 35 36 36 37
10 14 17 17 18 18 17 16 15 14 12 10 8 8 8 8 6 7 8 9 10 11 13 14 17 21 24 25 25 25 26 27 28 30 31 33 34 35 36 36 35 35 36 37 37 38 38 39 40 39 34 31 32 32 32 32 32 33 35 36 38 39
12 14 16 18 19 20 20 19 17 16 15 14 13 11 11 10 8 8 9 10 11 12 13 15 18 22 25 26 25 26 27 28 30 31 33 35 36 37 37 37 36 35 35 36 38 39 39 39 40 39 35 32 31 32 33 34 34 34 35 37 38 40
11 14 16 19 21 22 22 21 19 18 18 17 16 13 12 11 9 9 10 11 11 13 15 17 21 25 27 26 26 27 28 29 31 33 35 36 37 37 37 37 37 37 36 35 37 38 39 40 40 36 33 32 31 31 33 35 37 37 37 37 38 40
11 14 18 21 23 23 22 22 21 21 21 20 18 14 12 11 10 10 11 12 12 14 16 20 24 26 27 27 27 28 29 31 33 34 36 36 37 37 37 37 37 38 37 35 36 38 39 40 38 33 31 32 31 31 31 34 37 39 40 40 39 40
14 17 21 23 24 24 23 23 23 23 23 21 17 13 11 10 10 11 11 11 13 15 18 21 24 25 26 26 27 29 31 33 34 35 35 36 36 36 37 37 37 38 36 34 34 37 39 39 35 31 31 32 32 32 32 34 37 40 41 43 42 42
16 19 22 23 25 24 24 23 23 22 19 16 13 11 10 10 10 10 11 11 14 17 19 21 22 23 24 26 27 30 31 32 33 33 33 35 35 36 37 38 38 37 36 33 33 35 38 37 33 30 32 33 33 33 33 34 36 36 37 39 39 40
17 19 21 22 24 24 23 21 19 16 13 12 12 11 10 10 10 10 12 13 16 17 19 20 21 22 24 26 28 29 30 30 31 32 32 33 34 35 36 37 37 37 36 34 32 35 38 37 31 30 33 33 33 33 33 33 33 34 35 37 36 37
15 16 16 17 19 19 18 16 15 14 13 13 12 11 10 10 10 11 13 15 15 16 17 19 21 23 25 26 27 28 28 29 30 30 30 32 33 34 34 35 35 35 35 35 33 34 39 39 32 30 32 32 31 33 32 32 33 34 35 36 36 35
13 13 13 14 15 15 15 15 16 15 14 13 11 11 10 10 11 12 14 14 15 16 17 19 21 23 25 25 26 27 28 28 29 29 29 30 33 33 33 34 35 33 33 35 34 33 38 40 34 29 31 32 32 32 32 31 32 32 33 34 34 33
13 13 14 15 15 16 16 16 16 15 13 12 10 10 10 11 11 12 13 13 15 17 18 20 21 22 23 24 24 26 26 27 28 28 28 29 31 33 33 33 34 34 32 33 34 33 35 39 35 30 31 33 32 32 32 31 31 31 32 33 33 32
12 13 16 17 17 16 15 15 14 13 11 9 9 9 10 10 10 11 12 14 16 18 19 19 20 20 21 23 23 24 25 26 27 28 28 28 30 32 33 32 33 34 32 32 34 33 32 36 37 33 32 33 31 30 31 31 31 31 31 32 33 32
13 16 17 17 16 15 14 12 11 9 8 7 8 9 9 10 10 11 13 15 17 18 18 17 18 18 20 21 22 23 23 25 26 27 28 29 30 32 33 32 32 34 34 33 33 33 31 34 37 34 31 31 30 30 30 31 32 33 33 33 34 35
16 17 17 16 15 14 12 10 8 7 7 7 8 8 9 10 11 13 14 16 17 17 17 16 17 18 18 19 21 23 23 24 25 27 28 30 31 32 33 33 32 34 35 33 31 31 31 31 33 33 31 30 30 30 30 32 33 33 35 35 35 35
16 16 16 15 14 12 10 8 7 7 7 7 7 9 10 11 12 14 15 16 16 16 16 16 16 17 18 18 19 21 24 24 24 26 28 30 31 32 33 33 32 32 33 32 30 30 32 31 32 32 31 30 30 30 30 32 33 32 34 36 34 32
17 17 16 14 13 11 9 8 7 7 7 7 8 10 11 12 13 14 15 16 16 16 16 16 17 17 17 18 19 20 23 25 25 26 28 29 31 32 32 31 30 30 32 32 31 30 32 33 33 33 32 31 31 31 31 32 33 32 34 35 33 32
19 18 16 14 12 10 9 8 7 7 7 8 9 10 11 12 13 14 15 15 16 16 16 16 17 17 17 18 18 20 22 24 26 27 27 28 28 30 30 29 29 28 29 31 32 33 34 35 35 35 33 32 32 32 32 33 33 33 34 36 37 36
20 19 16 13 11 9 9 8 8 7 8 9 10 11 12 12 13 14 15 15 16 16 17 17 17 17 17 17 18 20 22 24 26 27 27 28 27 28 29 29 28 28 29 30 32 34 36 35 35 35 35 34 33 32 32 33 34 34 35 37 39 39
18 17 15 12 11 10 9 9 8 8 8 9 10 11 12 13 13 14 15 15 16 16 17 18 18 18 18 18 18 20 21 23 25 27 28 28 27 27 28 28 27 27 28 28 30 33 35 35 34 34 35 34 34 35 35 35 36 37 38 39 40 40
17 15 13 12 11 10 10 8 7 8 9 10 10 11 12 13 13 14 15 15 16 17 17 18 19 19 19 20 20 21 22 23 24 26 28 28 28 27 27 27 27 26 27 29 31 32 33 33 34 34 34 35 35 36 37 37 37 37 38 39 40 41
15 13 12 11 10 10 10 8 7 8 9 10 10 10 11 12 13 14 15 16 16 17 17 18 19 20 21 21 21 21 23 24 24 26 27 28 28 28 28 27 27 27 29 32 33 32 31 32 33 33 34 35 35 35 35 34 34 34 34 36 39 41
13 11 10 10 9 9 9 8 7 8 9 10 9 10 11 12 13 14 15 16 17 18 18 19 19 20 21 22 23 23 23 24 24 25 28 29 27 27 28 30 30 31 32 33 33 32 32 32 32 33 35 36 36 38 38 36 36 37 36 35 38 38
10 10 9 8 8 8 9 8 7 8 9 9 9 9 11 12 13 15 16 16 17 18 19 19 20 20 21 22 23 24 25 25 23 23 26 28 28 26 27 29 31 33 35 36 35 33 32 33 35 36 36 37 38 40 39 38 39 40 39 38 39 38
9 9 8 8 8 8 9 9 8 7 8 9 8 9 10 11 13 15 16 17 18 19 19 20 20 20 20 21 21 23 25 28 29 28 26 25 26 27 27 28 29 31 32 33 34 34 33 34 36 37 36 37 38 39 38 38 38 38 39 40 39 34
9 9 8 8 8 9 9 9 8 7 8 8 8 9 10 10 12 14 16 17 18 19 19 19 20 20 20 21 21 22 23 25 28 32 32 29 27 27 28 28 28 28 29 29 31 33 34 34 34 35 36 36 36 37 38 39 38 36 37 38 35 28
9 9 8 8 8 9 10 10 7 6 8 8 8 9 10 10 11 14 16 18 19 19 19 19 19 19 19 20 21 22 22 22 22 26 31 35 36 35 33 29 25 24 25 27 29 31 33 34 34 34 35 35 35 35 36 37 37 34 31 30 27 23
9 8 8 9 9 10 11 10 7 6 8 9 9 9 10 10 12 13 15 17 18 17 18 18 18 19 19 20 21 21 22 22 21 22 24 28 32 35 37 37 35 32 29 29 31 32 31 32 33 33 33 34 34 34 35 34 31 28 26 25 23 22
9 8 9 10 10 10 11 10 7 6 8 9 9 9 10 11 12 14 15 16 16 16 16 17 17 18 19 20 21 21 20 21 22 22 22 23 23 25 29 34 39 42 39 35 32 33 33 32 33 33 33 32 32 33 32 30 25 23 23 23 23 23
9 9 10 10 10 11 12 10 7 6 8 8 9 9 10 11 13 14 15 15 15 15 16 16 17 18 19 19 19 20 20 21 21 22 22 23 22 23 25 28 33 39 41 37 32 30 32 33 32 32 31 30 30 29 28 25 21 20 21 22 23 23
Wind_Direction
167 162 159 155 153 153 149 143 137 127 118 112 108 105 101 96 91 85 79 73 68 62 56 50 45 43 40 37 28 21 19 17 15 14 13 11 9 7 6 4 2 1 360 358 357 356 354 353 352 350 348 345 343 342 340 339 337 335 333 332 330 326
177 171 169 166 161 158 155 151 148 140 129 118 111 108 105 99 90 83 78 74 70 63 53 43 39 37 34 32 27 20 16 10 6 7 5 4 2 1 1 360 358 356 354 352 350 349 347 346 344 344 342 339 337 335 333 332 331 329 326 326 326 325
183 177 175 173 166 162 160 156 152 147 142 135 120 107 97 88 81 78 76 74 70 62 53 40 32 29 25 23 20 17 14 7 2 1 359 357 357 356 354 353 352 350 347 345 343 341 340 338 337 336 335 332 330 329 327 326 325 323 321 320 318 319
184 179 177 176 174 172 168 164 161 155 148 140 125 103 90 81 74 71 69 65 60 51 42 32 24 19 16 14 11 9 8 4 0 358 354 353 352 350 348 346 344 342 340 338 336 334 332 330 329 328 327 326 325 323 322 321 320 318 316 314 312 312
181 178 178 179 180 179 174 168 163 156 146 134 123 105 91 81 68 60 54 48 42 36 28 21 15 11 8 6 4 2 1 358 356 353 350 347 346 344 342 341 339 337 334 332 330 329 327 325 324 322 321 320 319 319 318 316 315 313 311 309 307 306
180 180 182 184 184 185 184 176 165 158 149 128 113 101 91 81 62 47 37 30 25 20 16 12 8 3 0 358 356 354 353 351 349 347 345 342 340 338 336 335 333 332 330 328 326 325 323 322 322 320 318 317 316 315 313 313 311 309 307 304 302 301
183 186 190 192 192 194 191 182 174 171 167 144 111 94 80 70 50 24 13 5 0 0 2 2 1 358 354 351 348 347 345 344 342 341 340 338 335 334 332 331 330 328 326 325 323 322 321 320 319 317 315 314 313 312 310 310 308 307 305 302 299 298
191 194 198 200 198 195 189 184 183 186 187 179 151 108 72 49 15 349 339 334 334 337 342 348 351 351 348 344 341 339 338 337 336 335 334 333 331 329 328 327 327 326 323 321 320 318 317 317 315 313 311 311 311 311 310 308 306 304 302 300 297 295
202 204 205 202 195 189 186 187 193 198 198 198 196 187 178 333 320 318 315 312 315 320 326 333 339 342 341 337 334 333 332 331 330 329 328 327 325 324 323 323 323 321 320 318 317 316 315 314 312 309 309 309 310 310 309 307 305 303 300 298 295 293
209 209 206 200 194 192 193 196 204 208 208 210 213 221 242 268 286 297 297 295 300 309 315 322 329 334 334 331 328 327 326 326 325 325 324 323 322 320 320 320 319 317 316 314 313 313 312 311 310 308 309 310 310 309 307 304 302 301 299 297 295 293
210 207 206 203 199 199 202 206 211 213 216 223 229 235 243 251 268 284 285 284 291 300 309 317 324 329 329 327 324 323 323 322 322 321 321 320 319 318 317 316 315 314 313 311 311 310 310 309 307 307 310 311 311 309 306 303 300 298 296 295 294 292
209 209 210 209 206 207 210 214 217 220 226 230 231 234 236 240 256 275 277 279 287 297 306 312 319 323 323 322 320 320 320 319 319 318 318 317 316 315 315 314 313 312 310 310 309 308 308 306 305 306 309 310 309 308 306 303 300 297 295 292 291 290
214 216 216 214 215 216 218 222 225 228 232 233 232 234 234 237 252 269 272 276 284 294 302 309 314 317 318 317 317 317 317 317 317 316 315 314 314 314 314 312 311 310 309 309 308 307 306 304 304 307 310 309 308 307 306 304 301 298 295 292 289 288
216 219 221 222 223 224 226 230 232 233 236 238 237 235 232 237 253 267 270 275 285 295 303 308 311 312 313 313 314 315 316 315 314 314 314 313 313 313 312 310 309 308 307 308 306 305 304 302 304 309 309 307 307 307 305 302 299 297 294 292 289 287
221 224 228 230 232 234 236 238 238 240 242 241 235 229 229 240 256 264 268 278 289 298 305 307 308 308 309 310 312 313 313 312 312 313 313 312 312 311 309 308 307 305 306 307 305 304 302 302 305 309 308 307 307 306 305 301 296 293 291 289 288 287
236 237 239 241 243 244 244 244 243 244 241 232 222 220 227 241 251 258 269 283 294 301 304 304 304 305 306 308 309 309 309 310 311 311 311 311 310 309 307 306 306 305 305 305 305 304 302 302 306 309 307 306 306 305 303 299 294 292 290 288 287 287
241 244 246 248 248 247 245 244 240 232 218 208 209 216 227 238 246 259 275 288 296 299 301 302 302 303 305 306 307 307 307 308 308 309 309 309 307 306 305 305 304 304 305 306 305 304 301 301 306 308 305 305 305 304 302 298 294 292 290 288 288 288
241 244 245 246 243 239 235 227 214 202 196 198 208 216 226 238 252 270 282 290 295 298 299 301 302 302 304 306 307 307 307 308 307 307 308 308 306 305 304 303 303 303 304 305 305 303 301 302 305 307 305 305 305 304 301 298 294 291 289 288 288 288
248 241 235 228 220 212 205 197 193 193 194 197 206 217 231 249 265 277 284 289 294 297 299 300 302 304 306 306 306 306 307 307 307 308 309 307 306 305 304 303 302 302 302 302 303 302 301 302 305 306 305 305 304 302 300 296 292 290 288 288 289 289
253 238 222 208 196 190 189 188 189 192 193 197 211 227 244 261 270 277 285 291 295 297 299 301 303 305 305 305 305 306 307 308 308 309 310 308 305 304 302 301 300 300 300 300 301 301 301 301 304 306 305 303 302 299 297 294 290 289 288 288 289 289
245 222 205 193 183 181 183 186 188 190 194 207 227 245 257 266 272 279 288 293 295 296 299 302 304 304 304 305 306 307 308 309 309 310 310 308 304 302 301 300 299 299 299 299 299 300 300 300 304 306 304 302 300 297 295 292 288 287 288 289 290 290
218 200 191 185 181 180 182 186 190 196 208 227 244 257 265 270 277 286 291 293 294 297 301 305 305 304 305 306 308 310 310 310 311 311 310 308 304 301 299 299 298 298 298 299 300 301 301 302 305 306 303 299 297 296 294 291 289 288 288 288 287 287
201 193 187 184 184 183 188 194 201 213 229 243 255 264 270 276 285 292 294 296 299 303 307 309 308 307 308 309 312 311 310 312 312 311 311 308 304 301 299 299 299 298 298 300 301 302 303 304 303 301 299 296 296 295 293 290 288 287 287 286 284 283
189 186 184 186 189 193 200 208 219 230 242 256 266 272 276 283 291 295 297 300 304 308 312 313 311 311 311 313 314 311 310 313 314 312 311 307 303 301 299 299 300 299 299 301 302 303 305 304 301 297 295 294 294 294 293 289 288 287 287 286 284 282
184 184 186 190 196 204 213 223 234 243 255 270 275 277 281 288 294 298 300 304 309 312 315 315 314 314 314 315 315 312 311 313 314 311 309 305 302 300 298 298 300 300 300 302 303 304 305 304 300 296 293 292 292 293 293 290 289 289 288 285 284 283
185 185 189 196 203 214 226 237 247 257 268 275 276 277 285 292 296 300 304 309 312 315 317 316 316 316 316 316 316 312 310 313 313 310 306 303 300 297 296 298 300 300 300 302 304 305 305 303 299 297 294 292 291 292 293 291 290 290 287 285 284 283
190 187 190 199 209 223 237 246 254 265 272 277 278 283 291 296 299 303 307 312 315 318 320 318 317 318 317 317 316 312 310 312 310 306 304 302 298 295 295 296 298 299 299 300 302 302 302 300 298 297 297 294 291 290 290 289 288 287 285 284 282 282
190 189 192 201 214 230 241 247 257 271 278 282 286 291 296 299 301 305 310 314 317 320 321 319 318 320 319 318 316 312 311 311 308 304 302 300 297 295 294 295 297 298 298 298 298 297 296 297 297 297 298 298 295 292 289 286 283 282 281 280 278 277
188 191 197 207 219 232 241 250 267 282 287 289 292 295 296 299 303 307 312 317 320 321 322 320 318 319 318 317 316 314 312 311 307 301 298 297 296 295 294 295 296 297 296 294 293 291 293 298 299 299 299 299 296 292 289 285 282 279 277 276 275 274
192 198 205 214 221 231 244 261 281 291 293 294 295 294 296 300 305 309 313 319 321 321 322 319 317 317 317 317 317 315 313 312 308 302 298 297 297 295 294 294 294 294 294 293 292 292 295 298 298 299 300 299 296 293 291 289 288 285 280 276 276 275
199 206 214 221 226 237 254 272 289 295 295 294 292 292 296 301 306 310 314 319 321 321 320 318 317 317 317 317 317 315 313 312 308 301 298 299 298 293 291 294 296 296 296 295 294 296 297 298 299 300 301 301 299 299 299 298 296 294 290 287 286 285
208 212 218 226 235 248 265 280 293 296 292 288 288 289 294 302 307 310 314 318 319 318 318 317 317 318 318 318 317 316 314 313 309 300 295 295 297 294 293 294 296 299 300 299 299 299 298 298 301 303 303 303 303 303 304 303 302 300 299 299 300 300
214 218 223 232 245 260 276 291 300 296 286 281 282 285 291 301 306 309 313 316 316 316 316 315 316 318 318 317 316 315 313 313 314 313 307 299 296 298 300 301 301 301 301 301 302 303 303 301 303 305 305 306 306 308 308 307 306 305 305 305 306 305
218 226 232 241 256 273 286 296 300 291 280 277 277 280 289 298 303 306 310 312 313 314 315 315 316 317 317 317 317 315 313 311 313 318 321 320 314 307 305 305 306 306 307 306 306 307 307 306 307 308 309 310 311 312 311 310 311 311 310 311 312 310
224 232 241 252 269 282 288 292 295 288 277 273 273 279 287 296 302 304 306 309 311 313 314 315 316 316 315 316 315 313 311 310 308 311 317 323 326 324 321 318 314 310 310 311 311 310 310 310 312 313 314 314 315 315 315 317 318 317 315 316 316 311
230 240 252 267 278 282 283 288 294 286 273 269 271 277 284 294 302 304 305 308 309 309 311 314 315 315 315 314 312 309 308 309 309 308 309 314 321 326 329 329 329 327 324 321 319 317 316 316 317 317 317 318 319 320 322 324 323 322 321 321 319 312
241 254 266 276 280 278 280 287 294 283 271 266 268 275 284 294 301 304 307 310 310 309 311 314 315 315 314 311 310 309 308 308 309 310 309 309 311 314 316 319 323 326 327 326 324 322 322 322 322 321 321 323 325 327 330 332 331 329 329 327 322 315
255 266 273 276 276 275 280 289 295 281 268 265 268 277 286 295 301 305 307 310 312 313 315 316 317 316 313 310 308 308 308 309 309 309 308 308 308 308 307 307 312 318 322 324 325 324 324 325 324 324 325 327 330 333 335 335 331 326 324 321 316 312